Skip Page Navigation
NASA JPL Caltech
NASA Logo - Jet Propulsion Laboratory + View the NASA Portal
+ Near-Earth Object (NEO) Program
Search JPL
JPL Home Earth Solar System Stars & Galaxies Technology
JPL Solar System Dynamics
BODIES ORBITS EPHEMERIDES TOOLS PHYSICAL DATA DISCOVERY FAQ SITE MAP
JPL Small-Body Database Browser
Search: [ help ]  
80807 Jimloudon (2000 CX112)
Classification: Main-belt Asteroid          SPK-ID: 2080807
Ephemeris | Orbit Diagram | Orbital Elements | Physical Parameters | Discovery Circumstances ]

[ show orbit diagram ]
Orbital Elements at Epoch 2456400.5 (2013-Apr-18.0) TDB
Reference: MPO236734 (heliocentric ecliptic J2000)
 Element Value Uncertainty (1-sigma)   Units 
e 0.1657920 n/a  
a 2.4350286 n/a AU
q 2.0313203 n/a AU
i 5.46814 n/a deg
node 112.36145 n/a deg
peri 130.31545 n/a deg
M 74.65434 n/a deg
tp 2456112.6892099
(2012-Jul-04.18920990)
n/a JED
period 1387.8882921
3.80
n/a
n/a
d
yr
n 0.25938687 n/a deg/d
Q 2.8387369 n/a AU
  Orbit Determination Parameters
   # obs. used (total)      506  
   first obs. used      2000-??-??  
   last obs. used      2012-08-12  
   # oppositions      10  
   planetary ephem.      DE403  
   condition code      0  
   fit RMS      0.56  
   data source      MPC:mpn  
   producer      MPCLINUX  

Additional Information
 T_jup = 3.480 

Ephemeris | Orbit Diagram | Orbital Elements | Physical Parameters | Discovery Circumstances ]

Physical Parameter Table
Parameter Symbol Value Units Sigma Reference Notes
absolute magnitude H 15.0 mag n/a MPO236734  

80807 Jimloudon           Discovered 2000 Feb. 7 by the Catalina Sky Survey.
James "Jim" Loudon (1944-1988) was a popular space-science lecturer with the University of Michigan, well known throughout the midwest U.S. He lectured throughout the 1970s and 1980s until his untimely death. The name was suggested by R. Hill.
NOTE: some special characters may not display properly (any characters within {} are an attempt to place the proper accent above a character)
Reference: 20080520/MPCPages.arcLast Updated: 2008-05-22

Alternate Designations
 2000 CX112 = 2001 NH2 
Ephemeris | Orbit Diagram | Orbital Elements | Physical Parameters | Discovery Circumstances ]
ABOUT SSD CREDITS/AWARDS PRIVACY/COPYRIGHT GLOSSARY LINKS
FirstGov 2013-May-25 10:16 UT
(server date/time)  
NASA Home Page
Site Manager:   Donald K. Yeomans
Webmaster  Alan B. Chamberlin